Find Starlink 1202

NORAD ID: 45183 Int'l Des: 2020-012 Owner: SPXS Country: US Constellation: starlink operational
LEOCIRCULAR

Live Position

Loading 3D Globe...

About Starlink 1202

Description loading...

Upcoming Passes

Passes for default location (London). Set your location on the main map for personalized predictions.

Altitude History

Loading altitude history...

Two-Line Element Set

1 45183U 20012F 26126.02024375 .00033696 00000-0 10795-2 0 9997
2 45183 53.1548 132.7887 0003110 49.1822 310.9449 15.32086653343735
Epoch: May 6, 2026 • Age: 10 hours

Current Status

Altitude 472.8 km
Velocity 7.63 km/s
Sub-Earth Point -5.56°S, 69.71°W
Launch Date Feb 17, 2020
Age 6.2 years
Type internet

Technical Details

Classification Payload
Mass 260.00 kg
Dry Mass 248.00 kg
Total Mass 260.00 kg
Length 0.20 m
Diameter 2.80 m
Span 9.00 m
Shape Box + pan
Manufacturer SPXS
Bus Type Starlink
Phase Status In Orbit
Owner/State SPXS/US

Most Searched